This demonstration page uses our WeatherBlox Daily Observations layout. Learn more.

Left ArrowRight Arrow

39.01783, -85.05884

Hourly Observations for February 8, 2020

Temp ( °F °C ) Dew Point ( °F °C ) Humidity (%) Winds ( mph kmh ) Pressure ( in mb ) Visibility ( mi km ) Precip ( " mm )
12:52 am 00:52 Mostly Cloudy 27 -2.8 23 -5 85 85 SSW 6 9 30.07 1018 10 16.0934 0 0
1:52 am 01:52 Cloudy 28 -2.2 24 -4.4 85 85 SSW 6 9 30.08 1019 9 14.48406 0 0
2:52 am 02:52 Cloudy 28 -2.2 24 -4.4 85 85 S 7 11 30.1 1019 9 14.48406 0 0
3:52 am 03:52 Mostly Cloudy with Light Snow 27 -2.8 24 -4.4 89 89 S 8 13 30.1 1019 4 6.43736 0.001 0.001
4:52 am 04:52 Cloudy 28 -2.2 25 -3.9 88 88 S 9 15 30.08 1019 7 11.26538 0.001 0.001
5:35 am 05:35 Cloudy with Light Snow 28 -2.2 25 -3.9 88 88 S 9 15 30.11 1020 1.75 2.816345 0.001 0.001
5:48 am 05:48 Cloudy with Light Snow 28 -2 25 -4 86 86 S 10 17 30.11 1020 2 3.21868 0.001 0.001
5:52 am 05:52 Cloudy with Light Snow 28 -2.2 26 -3.3 92 92 S 10 17 30.08 1019 2 3.21868 0.001 0.001
6:03 am 06:03 Cloudy with Light Snow 28 -2.2 26 -3.3 92 92 S 10 17 30.11 1020 2 3.21868 0.01 0.254
6:17 am 06:17 Cloudy with Light Snow 29 -1.7 26 -3.3 89 89 S 10 17 30.11 1020 4 6.43736 0.01 0.254
6:52 am 06:52 Cloudy with Light Snow 29 -1.7 26 -3.3 89 89 S 8 13 30.09 1019 3 4.82802 0.02 0.508
6:59 am 06:59 Cloudy with Light Snow 29 -1.7 26 -3.3 89 89 S 9 15 30.12 1020 2 3.21868 0.001 0.001
7:27 am 07:27 Cloudy with Light Snow 29 -1.7 26 -3.3 89 89 S 10 17 30.13 1020 3 4.82802 0.01 0.254
7:52 am 07:52 Cloudy with Light Snow 29 -1.7 26 -3.3 89 89 S 12 19 30.1 1019 5 8.0467 0.01 0.254
8:22 am 08:22 Cloudy with Mist and Fog 29 -1.7 26 -3.3 89 89 S 9 15 30.14 1021 5 8.0467 0.001 0.001
8:36 am 08:36 Cloudy with Light Snow 29 -1.7 26 -3.3 89 89 S 10 17 30.14 1021 1.75 2.816345 0.001 0.001
8:52 am 08:52 Cloudy with Light Snow 29 -1.7 26 -3.3 89 89 S 9 15 30.11 1020 1.5 2.41401 0.001 0.001
9:52 am 09:52 Cloudy with Light Snow 31 -0.6 28 -2.2 89 89 S 12 19 30.11 1020 2 3.21868 0.01 0.254
10:52 am 10:52 Cloudy with Light Snow 31 -0.6 28 -2.2 89 89 SSW 8 13 30.12 1020 2 3.21868 0.001 0.001
11:14 am 11:14 Cloudy 32 0 28 -2.2 85 85 SSW 10 17 30.16 1021 8 12.87472 0.001 0.001
11:21 am 11:21 Cloudy 32 0 28 -2.2 85 85 SSW 8 13 30.16 1021 8 12.87472 0.001 0.001
11:52 am 11:52 Cloudy 33 0.6 28 -2.2 82 82 WSW 10 17 30.14 1021 9 14.48406 0.001 0.001
12:52 pm 12:52 Cloudy 34 1.1 27 -2.8 76 76 WSW 8 13 30.13 1020 10 16.0934 0 0
1:52 pm 13:52 Cloudy 35 1.7 28 -2.2 76 76 W 8 13 30.14 1021 9 14.48406 0 0
2:52 pm 14:52 Cloudy 35 1.7 27 -2.8 72 72 W 7 11 30.15 1021 10 16.0934 0 0
3:52 pm 15:52 Cloudy with Light Snow 34 1.1 27 -2.8 76 76 W 9 15 30.17 1022 5 8.0467 0.001 0.001
4:28 pm 16:28 Cloudy with Light Snow 33 0.6 27 -2.8 78 78 W 9 15 30.21 1023 2.5 4.02335 0.01 0.254
4:48 pm 16:48 Cloudy with Light Snow 34 1 28 -2 81 81 W 3 6 30.22 1023 3 4.82802 0.01 0.254
4:52 pm 16:52 Cloudy with Light Snow 33 0.6 28 -2.2 82 82 W 5 7 30.2 1023 2.5 4.02335 0.01 0.254
5:43 pm 17:43 Cloudy with Light Snow 33 0.6 28 -2.2 82 82 W 3 6 30.23 1024 3 4.82802 0.01 0.254
5:52 pm 17:52 Cloudy with Light Snow 33 0.6 28 -2.2 82 82 WSW 5 7 30.22 1023 6 9.65604 0.01 0.254
6:15 pm 18:15 Cloudy with Light Snow 33 0.6 28 -2.2 82 82 WSW 7 11 30.25 1025 2 3.21868 0.001 0.001
6:44 pm 18:44 Cloudy with Light Snow 32 0 28 -2.2 85 85 SW 5 7 30.27 1025 4 6.43736 0.001 0.001
6:52 pm 18:52 Cloudy with Light Snow 32 0 28 -2.2 85 85 WSW 5 7 30.24 1024 4 6.43736 0.001 0.001
7:52 pm 19:52 Cloudy with Light Snow 32 0 28 -2.2 85 85 SW 5 7 30.27 1025 4 6.43736 0.001 0.001
8:10 pm 20:10 Cloudy with Light Snow 32 0 28 -2.2 85 85 WSW 5 7 30.3 1026 6 9.65604 0.001 0.001
8:52 pm 20:52 Cloudy with Light Snow 32 0 27 -2.8 82 82 WSW 6 9 30.28 1025 7 11.26538 0.001 0.001
9:52 pm 21:52 Cloudy 31 -0.6 26 -3.3 82 82 SW 5 7 30.29 1026 7 11.26538 0.001 0.001
10:48 pm 22:48 Mostly Cloudy 28 -2 25 -4 86 86 SSW 6 9 30.33 1027 7 11.26538 0 0
10:52 pm 22:52 Mostly Cloudy 28 -2.2 25 -3.9 88 88 SSW 6 9 30.3 1026 7 11.26538 0 0
11:52 pm 23:52 Mostly Cloudy with Mist and Fog 28 -2.2 25 -3.9 88 88 SW 6 9 30.33 1027 6 9.65604 0 0

Powered by AerisWeather